Roanoke Regional Airport Airport (ROA)

 

Airport Diagram
Current Weather/Forecast (MVFR Conditions)
METAR KROA 312154Z 05005KT 6SM -RA BR SCT008 BKN013 OVC034 07/04 A2980 RMK AO2 SLP092 P0007 T00670044
TAF KROA 312102Z 3121/0118 16006KT 6SM -RA BR OVC035 TEMPO 3121/3124 4SM RA BR OVC025 FM010000 VRB04KT 4SM -RA OVC009 FM010900 35005KT P6SM BKN011 FM011500 01005KT P6SM BKN015

All Charts
General
Chart Name Download
AIRPORT DIAGRAM
TAKEOFF MINIMUMS
ALTERNATE MINIMUMS
HOT SPOT

Departures
Chart Name Download
BUFIY THREE (RNAV)
DIXXY EIGHT
HOKEE THREE
MONAT THREE (RNAV)
SCUTA THREE (RNAV)

Approaches
Chart Name Download
ILS OR LOC RWY 34
RNAV (RNP) Z RWY 06
RNAV (RNP) Z RWY 24
RNAV (RNP) Z RWY 34
RNAV (GPS) Y RWY 06
RNAV (GPS) Y RWY 24
RNAV (GPS) Y RWY 34
LDA Y RWY 06
LDA Z RWY 06
VOR/DME-A


Inbound Traffic (Arrivals)

No inbound traffic.


Outbound Traffic (Departures)

No outbound traffic.